User: anonymous   Login
Location: Fort Wayne
(41.1310°N, 85.1290°W)
Time: 10:58:54
(UTC-05:00)
Language:

CZ-2C R/B - Orbit

View from above orbital plane
View from above orbital plane
View from above satellite
View from above satellite

Ground track
Ground track

The orbit data is extracted from the following two-line orbital elements,

1 36089U 09061B   14327.53334291  .00000326  00000-0  93142-4 0  4897
2 36089 098.0905 354.1560 0083250 049.9824 104.0763 14.49280455266026
Epoch (UTC): 23 November 2014 12:48:00
Eccentricity: 0.0083250
inclination: 98.0905°
perigee height: 669 km
apogee height: 787 km
right ascension of ascending node: 354.1560°
argument of perigee: 49.9824°
revolutions per day: 14.49280455
mean anomaly at epoch: 104.0763°
orbit number at epoch: 26602

The dashed part of the orbit path shows where the satellite is in the earth's shadow,  

DLR